軌道要素
Epoch 2022 Jan. 21.0 TT = JDT 2459600.5
T 2022 June 11.90267 TT Rudenko
q 1.7774322 (2000.0) P Q
z -0.0004897 Peri. 228.84441 -0.11524421 -0.43255764
+/-0.0000009 Node 104.46808 -0.37427372 +0.85277274
e 1.0008704 Incl. 112.55712 -0.92012931 -0.29269872
From 900 observations 2021 Mar. 9-2022 Apr. 16, mean residual 0".4.
|